Location: Shannon
(40.5500°S, 175.4167°E)
Time: 07:40:53
(UTC+00:00)

NOSS 0 Rocket - Pass Details

Date: 17 November 2025
Orbit: 934 x 953 km, 70.0° (Epoch: 14 December)

Event Time Altitude Azimuth Distance (km) Brightness Sun altitude
Rises 13:21:48 0° 211° (SSW) 3,643 7.5 -27.6°
Reaches altitude 10° 13:24:25 10° 215° (SW) 2,688 6.7 -27.4°
Enters shadow 13:29:45 47° 269° (W) 1,232 4.3 -27.0°
